Theta_e
339 343 340 340 339 339 339 338 339 338 340 340 336 336 336 338 336 335 336 338 339 336 335 335 337 342 340 334 335 338 337 342 341 338 336 336 336 338 340 340 338 337 335 335 335 335 335 334 333 333 333 333 332 331 330 330 329 329 329 329 330 329 329 328 328 328 328 328 328 328 328 327 327 327 327 328 329 329 330 330 331 331 332 332 332
341 342 346 348 343 344 341 342 338 343 344 341 341 340 338 337 338 336 334 339 337 340 338 337 334 336 337 335 337 338 339 340 342 338 337 337 337 339 340 341 339 337 337 336 335 334 335 334 334 333 333 332 332 331 331 331 331 330 330 329 328 329 328 328 328 328 328 328 328 327 327 328 328 327 327 327 326 327 329 329 330 330 330 330 330
340 340 339 339 339 341 339 339 340 342 344 343 341 341 343 344 343 345 343 337 341 344 338 342 338 335 333 335 336 336 337 339 341 341 337 337 337 338 339 338 337 338 338 338 336 335 335 335 334 333 333 333 332 332 332 330 330 330 329 329 328 328 327 328 327 327 327 326 327 327 327 327 327 327 327 326 326 326 326 327 328 329 329 328 328
339 339 338 336 334 342 344 343 343 344 345 343 343 345 344 345 346 346 347 347 343 342 338 345 339 332 337 335 336 337 339 338 340 342 337 337 337 337 337 338 339 338 336 338 338 336 335 335 334 335 334 334 333 332 331 331 330 329 329 329 328 328 328 327 327 327 327 327 328 327 327 327 327 326 326 325 325 325 325 326 326 327 328 327 327
340 339 337 336 338 344 343 343 344 345 346 346 346 345 345 346 345 347 345 348 344 338 342 341 335 333 334 335 336 336 339 338 338 340 338 337 336 336 336 336 336 339 339 336 339 337 335 335 335 335 335 335 335 333 332 331 330 330 329 328 328 328 328 328 327 327 327 326 327 326 327 326 326 326 325 325 325 325 325 325 326 327 327 327 327
341 339 338 336 336 337 336 336 338 340 342 346 342 345 343 343 342 340 340 340 340 341 341 340 335 334 334 336 336 336 338 339 338 338 338 336 336 335 335 335 336 336 336 338 338 339 338 336 336 336 336 335 335 335 333 332 331 330 329 329 328 328 328 328 327 328 327 327 327 326 326 326 326 326 325 325 325 325 325 325 325 325 326 326 326
340 338 339 338 337 338 336 338 339 341 342 346 348 343 344 341 339 336 339 341 340 339 338 336 333 332 333 334 335 337 338 338 337 337 337 338 337 336 337 336 337 337 338 336 339 339 339 337 336 336 336 337 336 336 335 333 331 331 330 329 329 328 328 328 328 328 327 326 325 325 325 325 325 325 325 325 324 324 324 325 324 325 325 325 326
340 339 335 340 339 340 339 340 343 345 345 348 347 343 340 344 343 344 339 338 338 337 338 334 332 330 332 334 335 335 337 338 336 336 336 337 336 336 336 336 336 335 339 334 334 336 338 337 337 336 336 336 336 336 336 332 332 331 331 330 329 329 328 328 328 328 327 327 327 326 326 325 326 326 326 325 325 325 325 325 324 324 325 325 325
339 336 336 340 341 340 341 340 342 344 342 342 343 343 341 342 345 344 341 337 335 333 334 335 332 331 331 332 335 336 336 335 336 336 338 337 336 336 335 334 336 337 338 334 333 334 337 338 336 337 336 336 336 335 334 333 332 332 331 331 330 329 329 329 328 328 327 327 327 326 327 326 325 326 326 326 326 326 326 325 324 325 325 325 324
339 339 339 342 341 340 338 340 341 342 340 338 341 342 343 343 342 342 342 342 336 334 334 334 332 332 333 334 334 336 336 334 336 336 335 336 336 334 334 334 335 335 336 337 333 333 334 336 337 337 337 337 335 335 336 335 334 334 333 332 332 331 331 331 330 329 328 327 327 326 326 326 326 325 325 326 326 326 326 326 325 325 325 325 325
338 340 340 340 340 340 339 338 341 341 339 338 341 342 343 343 342 340 343 337 339 337 336 334 331 332 331 333 334 335 335 337 336 334 334 334 336 336 336 334 335 336 335 334 335 333 333 333 334 334 335 336 336 336 336 336 336 336 335 335 334 333 333 333 332 330 329 327 327 326 326 326 326 326 327 327 327 326 326 326 326 325 325 326 326
339 339 340 340 339 338 338 339 339 339 338 338 335 342 341 341 339 339 338 337 338 338 335 334 333 331 329 329 332 333 334 335 335 334 333 333 333 335 334 335 335 334 335 335 335 336 334 333 336 333 335 336 337 337 336 336 337 335 336 334 335 334 334 333 334 333 329 328 328 327 325 325 325 326 326 327 327 327 326 326 325 325 325 325 325
339 337 338 341 339 338 339 340 340 338 338 339 343 340 341 341 338 342 337 335 333 337 337 334 331 328 330 331 331 333 332 334 334 334 334 333 332 333 333 334 334 334 336 334 335 333 334 335 334 334 334 334 333 335 335 335 336 335 335 335 336 335 335 334 334 334 330 330 328 328 327 327 327 327 329 329 329 328 327 327 327 327 327 326 326
339 338 339 340 339 338 340 342 339 338 337 341 342 341 341 341 339 336 339 334 334 336 335 333 328 325 324 324 327 329 332 332 332 333 334 332 331 331 333 332 332 332 333 330 333 334 333 334 334 334 334 333 332 331 332 332 333 335 335 335 335 334 335 336 335 334 331 330 330 330 329 328 328 329 330 330 330 330 329 329 329 328 328 328 328
336 337 338 339 341 341 340 342 341 341 342 341 340 339 340 340 340 336 333 335 334 337 336 335 326 328 328 323 320 320 323 327 330 332 333 331 332 332 333 331 332 332 332 331 331 331 331 331 332 332 333 333 333 333 334 334 333 333 333 334 335 334 334 334 335 335 333 331 331 330 330 330 329 330 330 330 331 330 330 329 329 329 330 329 329
336 336 339 338 337 340 340 339 341 341 341 339 340 338 340 339 340 338 335 329 330 333 337 335 331 326 320 321 321 321 317 320 322 327 331 331 332 332 332 330 330 332 332 331 332 332 332 332 331 333 333 334 334 333 333 332 330 330 331 331 332 333 334 335 334 334 334 332 331 331 330 330 331 331 331 331 331 331 330 330 330 329 330 331 331
337 335 335 337 339 341 342 341 341 342 340 339 337 337 338 339 339 337 336 335 329 332 334 335 333 334 327 321 317 316 317 321 322 322 328 327 329 331 330 329 329 330 329 329 333 331 331 333 334 333 332 334 333 333 332 333 331 333 331 332 333 334 334 334 335 334 334 334 332 332 331 331 332 331 331 330 330 331 331 331 331 331 331 331 331
338 338 336 340 341 342 341 340 340 341 340 338 338 336 337 336 338 337 336 335 332 330 329 334 335 334 333 332 329 320 319 322 322 315 325 327 327 328 330 327 329 330 331 331 331 332 332 332 332 333 333 332 334 333 332 332 334 332 331 329 331 330 330 333 333 335 336 334 333 332 332 333 332 331 331 331 331 331 331 330 330 330 330 330 329
339 339 341 342 341 342 342 340 340 340 338 338 337 337 335 334 335 337 337 335 334 329 328 330 333 334 334 334 332 331 329 321 318 320 316 322 326 326 326 329 329 330 330 330 331 331 331 331 332 331 333 333 332 331 329 329 328 328 328 326 326 327 326 327 332 334 334 334 335 333 333 333 332 331 330 330 330 329 329 328 329 329 328 327 326
340 338 340 341 342 342 341 343 339 338 337 337 337 337 337 335 337 336 338 335 335 332 329 328 328 329 332 330 331 333 331 327 327 323 319 316 319 326 327 328 328 328 330 329 329 329 329 330 330 330 329 332 332 330 328 328 326 325 324 324 324 325 324 324 323 324 331 333 334 332 333 332 332 330 329 328 327 327 327 326 325 325 324 323 322
340 342 338 338 339 340 341 341 341 339 336 337 336 337 337 337 337 337 336 336 336 335 333 330 330 329 330 330 330 330 329 328 326 327 321 318 317 319 320 325 326 327 327 329 329 330 329 330 328 329 329 329 328 327 327 325 323 322 323 322 323 323 322 321 319 320 320 330 332 333 333 332 331 330 328 327 326 326 325 324 323 322 321 320 320
340 339 339 336 338 338 338 338 340 340 337 340 336 337 337 338 338 338 337 335 335 335 333 332 332 332 333 333 329 327 327 325 327 326 323 323 317 317 320 319 319 323 327 327 327 328 328 328 327 328 329 328 326 326 325 324 322 321 320 321 320 320 320 319 316 317 319 326 331 330 330 329 328 327 327 326 326 325 323 322 322 321 320 320 319
339 340 340 337 339 339 339 337 338 337 335 338 339 338 339 339 338 338 338 334 333 333 334 333 333 333 332 332 330 327 323 321 324 324 323 320 319 320 320 321 320 320 324 327 326 326 326 327 326 328 326 323 323 323 320 318 319 319 320 320 320 320 318 315 315 315 318 325 329 329 329 328 327 326 326 326 325 323 322 321 321 320 320 319 319
339 338 342 338 341 339 339 339 337 340 337 337 336 337 339 339 340 339 337 336 336 335 333 332 333 332 331 332 330 329 328 326 326 328 326 322 322 319 319 321 320 321 323 325 326 326 326 325 326 325 323 322 322 321 319 318 317 319 317 318 318 317 317 317 315 315 314 321 322 324 324 325 325 327 327 327 326 326 325 324 323 321 320 320 319
335 336 338 339 339 337 338 337 336 338 337 335 336 336 338 339 338 335 336 335 335 335 333 332 332 330 331 333 332 330 329 330 330 327 328 327 323 318 319 320 317 317 320 323 321 325 326 325 325 323 319 319 321 320 318 316 314 316 316 315 315 315 316 320 318 314 311 311 317 321 322 322 323 324 325 325 324 323 322 318 315 314 316 320 318
335 335 336 336 337 338 339 337 336 337 338 337 335 335 337 336 338 336 335 336 336 335 334 334 334 333 334 332 334 332 331 332 331 329 328 327 324 321 318 319 318 316 318 319 322 319 322 327 323 321 318 318 319 319 316 315 314 316 315 312 312 313 312 314 316 314 310 308 306 307 311 316 318 318 319 319 316 313 312 312 310 310 310 312 317
335 336 335 338 336 338 337 335 337 336 336 337 336 336 332 332 337 335 336 336 336 335 334 334 334 334 333 332 332 332 332 330 330 330 331 331 327 325 320 316 315 315 314 317 319 319 319 321 317 316 316 316 316 316 316 314 315 315 313 310 308 310 310 312 313 312 309 306 304 305 306 308 309 310 310 310 310 313 314 313 311 309 309 310 313
335 334 336 335 334 334 335 335 336 336 335 335 334 333 336 335 333 336 337 335 335 335 334 335 333 333 333 333 332 330 331 330 330 330 328 328 329 329 324 319 314 311 314 312 314 315 320 313 314 315 314 314 315 315 317 314 312 316 314 309 307 307 308 308 309 311 309 307 306 305 306 306 307 308 310 313 313 313 313 313 312 311 310 311 312
334 334 336 334 334 332 333 333 336 336 336 336 335 333 334 337 333 335 331 331 332 333 333 333 333 333 333 332 332 331 331 331 330 331 332 331 329 329 328 323 320 313 310 310 313 311 314 314 311 312 314 312 310 312 311 311 313 313 310 309 307 305 307 307 307 308 306 306 307 308 307 308 309 310 312 313 313 313 312 312 313 311 311 313 312
332 333 335 334 336 333 331 333 336 335 335 335 333 333 334 334 332 333 334 335 334 334 335 333 331 333 333 332 330 329 331 330 333 332 332 330 329 326 326 324 322 316 313 310 310 314 313 313 313 311 312 310 309 310 309 308 311 312 308 308 307 304 306 306 306 305 305 306 306 304 306 308 310 312 313 312 312 311 311 311 311 312 313 314 313
331 332 334 331 334 332 330 332 334 334 335 334 331 332 334 331 332 332 333 334 332 333 333 333 332 333 331 331 330 329 330 332 333 334 332 329 328 324 323 323 322 321 318 313 309 314 314 311 310 312 309 308 309 308 309 309 311 311 308 308 306 306 307 305 306 306 306 307 305 305 308 310 309 310 311 312 311 312 311 310 310 310 313 312 310
332 332 331 330 331 330 329 329 332 331 331 332 333 331 332 331 332 331 332 332 329 330 331 333 331 332 331 330 329 329 330 332 331 331 329 328 325 323 324 325 322 322 319 316 312 311 323 311 310 309 309 308 309 309 309 310 311 312 310 307 305 307 304 303 306 306 306 306 306 309 312 311 310 311 312 312 311 311 311 312 311 311 311 308 307
332 331 330 328 328 330 327 327 327 331 330 332 331 332 331 331 331 329 331 330 327 329 331 331 329 330 329 328 329 330 332 329 327 328 327 325 323 322 323 322 321 320 319 316 311 312 314 314 311 309 310 310 308 309 308 308 309 310 311 306 304 305 305 303 304 304 305 305 305 306 308 306 307 311 309 309 311 310 309 306 307 307 307 307 305
332 330 328 332 329 330 326 324 328 328 330 329 330 331 331 329 328 332 331 330 328 328 331 329 330 330 330 328 327 328 330 327 327 324 323 321 318 317 318 322 319 319 320 317 313 310 306 311 310 310 311 311 307 309 308 308 309 309 308 305 305 306 307 305 304 304 303 305 304 305 306 305 304 307 305 302 304 304 305 304 305 304 305 303 301
332 331 329 330 329 329 326 326 325 328 328 327 330 331 328 328 327 330 329 329 329 329 330 329 327 328 329 329 329 329 330 326 325 323 323 321 318 315 316 317 316 319 317 316 313 310 309 310 312 307 308 309 308 307 309 310 311 311 307 305 305 308 310 308 306 306 302 303 303 304 304 304 304 304 304 303 303 303 303 303 304 304 303 302 300
329 334 330 329 330 331 327 324 326 326 327 329 330 326 326 328 327 325 326 328 329 330 330 329 327 327 327 328 328 329 327 325 324 322 322 322 323 318 319 317 318 318 317 315 315 311 310 309 308 306 309 306 311 309 310 310 310 309 308 307 307 308 309 310 309 308 304 302 302 303 304 303 303 303 303 303 304 303 303 304 304 304 303 303 302
329 333 328 332 328 328 327 323 323 325 326 326 327 326 329 328 328 327 325 325 327 328 329 329 330 328 327 328 327 327 326 324 323 319 321 324 319 319 318 317 317 320 321 321 316 312 311 309 309 311 309 309 309 310 309 308 308 309 309 308 307 306 307 310 310 311 305 303 303 303 303 302 302 302 302 302 303 303 303 304 304 303 303 303 302
326 332 328 331 326 323 324 322 323 326 324 326 324 324 323 327 328 328 329 327 326 326 326 326 326 328 327 326 329 327 325 324 324 324 322 320 320 320 319 318 317 320 321 320 319 320 315 311 311 312 308 309 307 312 309 308 307 306 306 308 308 308 307 308 310 311 308 304 303 302 301 301 302 302 302 302 302 302 302 302 303 303 303 303 302
326 330 327 327 330 323 323 323 323 325 325 326 327 327 325 327 326 327 326 328 327 326 328 326 327 326 326 326 326 327 326 325 325 323 323 324 327 324 325 322 321 321 322 319 317 317 318 316 312 312 313 311 311 308 311 310 309 308 307 307 307 308 309 308 310 307 307 304 304 303 302 301 302 301 301 302 303 303 303 302 302 303 302 301 300
327 328 328 325 328 326 327 322 323 326 325 324 323 326 327 325 327 327 327 328 327 326 327 325 326 327 326 326 327 327 327 325 325 325 325 327 328 324 326 323 323 318 318 320 320 318 316 316 315 314 313 314 311 313 312 310 308 307 309 309 306 307 308 310 310 305 306 304 304 304 303 303 302 301 301 301 302 302 301 302 303 303 302 300 300
329 328 326 324 325 325 321 325 321 323 318 312 308 310 320 325 328 326 327 326 326 326 325 326 326 326 326 326 320 317 319 315 310 310 312 316 324 325 323 323 322 323 321 319 319 316 316 317 315 316 316 315 314 312 310 309 310 306 310 310 309 309 310 311 311 308 307 304 305 304 303 303 302 302 301 302 302 302 302 302 303 304 302 299 299
328 326 325 326 327 321 322 321 323 319 316 308 300 296 300 314 321 322 327 326 325 325 324 323 324 325 324 319 321 319 314 312 307 301 300 303 309 316 316 317 321 322 321 318 318 317 317 315 316 316 313 312 313 314 313 313 315 318 314 311 310 312 311 311 312 311 309 307 305 304 304 306 304 305 304 303 305 304 303 302 302 302 301 299 299
324 324 325 326 324 323 323 322 319 316 308 302 295 293 294 296 315 322 325 327 327 325 325 322 323 323 324 322 320 321 319 317 308 299 299 298 297 298 299 302 309 317 318 320 319 317 316 316 318 315 314 313 315 316 316 315 316 315 313 314 315 313 310 308 306 312 316 310 308 307 308 308 308 306 306 305 306 304 304 303 301 301 301 299 299
324 325 325 324 325 324 321 318 317 313 308 297 293 294 294 294 298 316 321 321 327 325 323 324 323 323 322 322 321 324 323 323 319 316 308 300 299 297 296 298 297 296 301 315 316 315 317 315 315 316 313 312 316 316 315 315 314 314 314 314 313 312 310 309 308 307 314 317 313 312 311 311 310 308 307 307 307 305 305 303 301 300 300 299 299
325 324 324 325 325 323 319 315 313 311 307 295 293 294 294 294 293 306 320 323 322 322 323 323 324 324 322 323 324 326 321 327 325 323 319 311 298 294 299 302 303 304 300 297 301 311 313 313 314 315 315 316 315 317 316 316 319 315 315 314 313 312 311 309 309 309 314 320 313 311 310 311 309 307 308 311 308 306 305 302 301 300 299 299 299
323 323 323 324 322 318 315 314 310 307 302 296 293 293 294 293 294 299 321 323 324 324 323 322 323 321 321 319 319 320 319 321 319 315 321 324 322 322 321 320 321 315 303 304 301 295 300 312 314 314 316 318 318 319 321 321 319 316 315 313 315 314 313 313 315 315 316 320 312 309 309 309 311 309 307 310 308 307 305 303 300 299 298 298 298
320 321 322 321 319 315 313 311 308 304 300 292 292 293 293 294 294 302 320 325 324 323 323 323 322 321 321 322 321 321 322 323 308 304 310 316 322 320 320 322 322 322 320 319 320 318 317 316 314 315 317 319 316 315 315 315 316 317 319 316 316 315 315 314 312 314 312 315 315 311 307 309 310 310 309 309 306 304 303 299 299 298 298 298 298
320 319 319 321 318 316 314 312 308 305 300 291 291 292 292 292 297 319 324 325 325 324 322 323 322 322 321 321 320 320 322 317 298 294 297 308 319 321 320 319 317 317 319 316 310 307 309 311 311 310 311 310 304 311 310 310 311 314 315 317 317 315 312 310 309 308 307 311 313 311 307 307 308 309 308 312 309 304 302 299 298 298 298 298 297
316 315 314 315 318 315 311 309 307 303 300 293 291 291 292 291 303 319 323 324 323 323 320 319 319 315 315 319 322 321 318 306 293 292 293 303 318 320 319 318 317 316 318 321 312 300 295 295 295 296 296 296 295 295 296 295 305 309 311 310 310 312 310 307 309 308 308 308 310 311 309 304 307 306 306 306 305 305 304 301 299 297 298 298 297
316 315 314 312 310 309 306 305 304 302 300 295 291 292 293 292 297 316 320 321 321 321 320 319 318 311 306 308 313 312 307 300 291 291 292 305 314 317 318 318 314 314 315 319 321 317 296 295 295 294 294 295 296 296 297 296 295 299 311 309 311 311 310 309 308 308 306 306 307 311 307 304 306 305 303 305 304 306 305 301 299 298 297 297 296
314 314 312 311 310 309 308 306 305 302 300 297 293 292 293 294 301 314 317 316 317 319 319 318 317 310 305 301 299 298 299 294 289 290 291 301 310 311 312 314 314 314 313 314 317 318 316 314 313 308 306 299 300 304 305 295 296 302 311 313 313 311 309 308 308 307 303 303 306 310 305 303 304 305 303 302 300 304 303 301 298 297 296 297 296
Wind_Speed
1 2 5 5 5 6 7 6 5 6 7 7 5 5 4 3 3 4 5 4 1 3 5 3 2 3 7 13 2 1 3 2 2 7 7 6 5 6 8 7 7 7 8 8 8 8 9 9 8 8 9 10 10 9 9 9 10 10 11 11 11 11 11 12 12 13 13 13 13 13 13 13 13 14 13 14 14 13 14 14 15 16 16 16 17
2 4 1 2 3 2 3 2 3 2 2 2 2 3 4 5 4 5 3 0 3 1 1 1 2 1 12 9 4 3 3 4 2 4 6 5 6 5 9 7 7 7 7 8 8 8 9 9 9 8 9 9 9 9 9 9 9 10 10 10 11 10 10 12 12 13 13 13 12 12 13 13 14 14 14 13 13 14 14 14 14 15 16 16 16
2 3 4 3 4 4 4 5 4 2 2 2 3 3 2 1 1 1 1 3 1 1 2 1 1 11 10 8 4 2 6 0 1 4 4 6 5 5 6 9 8 7 6 6 7 8 9 9 9 9 8 8 8 8 8 8 9 9 10 10 10 10 10 10 11 11 12 12 12 12 12 12 13 13 14 13 13 13 13 13 14 14 15 14 14
0 1 2 2 9 3 2 2 2 2 0 2 1 1 2 0 2 1 1 0 1 2 4 1 4 12 9 7 4 3 4 2 1 1 6 6 5 5 4 4 7 7 7 5 6 7 9 9 9 9 8 8 8 7 7 8 8 9 9 10 9 9 10 10 11 11 11 12 12 12 12 13 13 13 13 13 13 12 13 13 13 13 14 14 14
1 2 2 3 11 2 1 2 2 1 1 2 2 0 2 1 2 1 2 1 1 3 2 1 8 10 8 4 5 6 4 1 2 2 5 6 5 5 4 4 4 5 6 7 5 7 8 8 8 8 8 9 8 8 8 8 8 8 9 9 9 10 10 10 10 10 10 11 11 12 12 13 13 13 13 13 13 13 12 13 13 13 13 14 14
1 3 5 4 7 7 6 5 3 6 6 2 4 2 2 2 2 1 3 2 1 1 1 2 11 9 6 4 1 5 4 3 3 3 4 5 5 5 5 4 4 3 4 6 5 5 6 7 7 6 7 7 7 8 8 9 9 9 9 9 9 9 9 9 10 10 10 11 11 11 11 12 12 12 12 13 13 13 13 12 13 13 13 13 13
2 7 4 4 4 3 2 4 3 5 7 2 1 2 1 2 3 3 2 0 2 2 1 4 7 12 9 3 2 5 3 4 4 3 3 3 4 4 4 4 3 2 3 3 4 4 3 5 6 5 6 6 6 8 8 8 9 9 9 9 9 9 8 9 9 10 10 10 10 11 10 11 12 12 12 12 12 13 13 13 13 13 13 13 13
3 5 2 2 3 4 3 3 3 0 2 2 1 2 3 1 2 2 2 1 2 0 2 4 9 11 5 2 3 4 4 3 3 3 3 4 4 4 4 4 3 2 1 4 3 5 7 5 5 5 5 5 7 8 9 8 9 9 9 9 9 9 9 9 9 10 10 10 10 10 11 11 11 11 12 12 11 12 12 12 13 13 13 13 13
2 5 7 5 4 3 3 3 1 1 2 3 2 1 2 2 0 1 0 1 1 3 0 5 8 10 8 4 2 3 4 2 4 3 3 3 4 4 4 3 2 3 0 3 4 4 5 6 5 5 4 4 5 8 9 9 9 9 9 10 9 9 9 9 9 9 10 10 10 10 11 10 10 11 11 11 11 11 11 11 11 11 12 12 12
4 5 7 4 4 3 3 2 2 1 2 3 2 2 2 2 1 1 1 1 2 1 2 4 9 7 5 4 6 3 4 3 4 4 4 3 4 4 4 4 2 2 1 1 4 4 3 4 5 4 3 3 5 7 9 9 9 9 10 10 10 9 9 10 10 9 10 10 10 10 9 10 9 10 11 11 10 10 11 11 10 10 10 10 11
5 5 5 4 3 1 3 2 2 2 3 4 1 1 1 2 0 1 1 2 2 3 3 6 7 7 5 2 5 3 3 3 4 4 4 3 4 5 4 2 2 2 1 2 3 4 3 2 3 3 2 2 4 6 7 7 7 8 9 11 11 10 11 10 10 10 10 10 10 9 9 9 8 8 9 10 10 10 10 10 9 9 9 9 9
6 4 6 5 3 4 4 5 3 1 2 2 5 1 2 2 1 2 2 2 1 2 2 6 9 9 4 6 4 1 3 3 4 4 3 3 4 3 3 3 3 2 2 4 4 4 2 2 1 3 3 3 5 5 5 4 4 7 6 8 9 10 10 10 11 12 11 10 10 10 9 8 8 8 8 10 10 9 9 9 9 8 8 8 8
6 7 9 6 5 4 4 4 4 4 3 2 2 2 2 2 3 0 2 2 3 2 3 6 8 6 4 5 5 4 2 3 4 5 4 3 4 3 2 4 4 4 5 5 4 3 1 1 1 2 3 3 3 4 5 4 2 4 5 6 7 9 10 10 11 12 11 11 11 10 9 9 8 7 11 12 10 9 9 8 8 7 7 7 7
0 5 7 6 5 5 4 4 6 5 5 3 2 2 3 2 2 2 0 1 2 3 4 3 3 4 4 2 4 4 4 4 4 3 3 5 3 2 3 5 4 3 5 5 2 1 1 0 0 1 1 2 3 3 2 3 3 4 2 1 5 5 8 9 11 13 12 12 11 10 9 9 8 8 10 11 10 10 9 9 9 7 7 8 7
5 7 4 5 5 5 5 3 2 2 2 1 4 3 2 2 2 2 2 2 2 4 3 1 6 4 3 4 2 4 2 3 3 4 4 5 2 2 3 6 3 2 4 5 3 2 1 1 1 1 1 1 2 3 4 3 3 5 3 2 3 3 7 9 12 13 13 12 12 10 9 9 8 8 8 8 8 8 7 7 6 6 6 4 4
5 6 3 4 6 5 2 4 2 3 3 2 2 3 1 1 1 0 2 4 2 2 2 3 4 6 3 1 1 1 4 3 3 3 6 5 4 3 4 4 2 2 3 2 3 3 2 2 4 3 2 1 1 2 1 3 5 4 3 3 2 1 6 8 8 12 14 12 12 11 9 9 9 8 7 6 6 6 6 6 5 3 5 8 9
9 9 8 8 8 4 5 4 4 3 3 3 3 3 2 1 1 1 1 1 5 2 2 2 3 2 4 3 2 1 1 4 5 4 4 2 2 2 2 3 1 2 3 1 2 4 4 4 3 3 3 3 3 3 3 4 3 3 3 4 2 1 5 8 9 10 13 13 12 11 9 9 9 8 6 5 5 7 10 12 13 14 15 15 15
8 12 9 8 6 4 4 5 4 4 4 3 2 4 3 2 1 2 2 3 3 4 2 1 2 4 2 1 1 3 4 4 2 4 2 2 3 2 3 3 1 2 5 4 3 5 5 2 2 3 4 5 4 4 3 3 3 2 3 3 5 6 4 6 8 11 13 14 13 11 11 11 10 9 12 13 13 14 14 13 13 15 15 15 15
5 3 4 4 2 2 3 4 5 4 5 4 3 3 3 3 4 2 2 4 3 2 4 3 2 2 4 2 3 1 3 6 2 5 5 2 4 3 4 6 6 4 4 3 3 2 2 2 3 5 3 3 4 5 6 6 7 7 6 7 8 8 8 6 8 11 11 13 13 12 12 11 12 14 13 13 12 12 13 14 14 14 15 14 14
4 3 5 7 4 3 2 2 4 4 4 4 4 3 4 3 3 3 3 4 3 2 4 4 3 3 4 2 2 2 3 5 4 3 5 6 3 2 4 4 3 2 1 3 3 3 3 2 3 6 5 3 3 6 5 5 5 4 4 9 9 9 10 9 8 8 9 11 11 11 13 14 16 15 14 13 14 14 14 14 14 14 14 14 14
2 2 3 5 5 4 3 3 2 3 3 4 4 4 3 2 2 3 4 3 4 3 3 2 2 2 2 2 3 2 3 5 4 2 3 4 5 5 4 5 5 3 3 3 3 3 3 3 7 7 5 4 6 6 6 5 5 5 6 10 11 11 11 11 12 11 9 9 13 14 15 16 15 15 15 14 14 13 14 14 14 14 14 14 14
3 3 3 4 3 4 4 4 3 2 3 1 3 3 5 3 3 2 4 4 3 2 3 3 2 2 1 3 2 3 3 2 1 2 4 2 5 7 6 6 4 2 2 3 4 3 3 3 7 7 4 4 6 6 6 5 4 5 7 12 12 12 11 11 11 12 13 14 15 17 17 16 16 15 14 14 14 13 14 14 14 14 14 15 15
4 3 3 4 4 3 3 4 3 4 3 3 2 2 3 2 2 4 3 5 3 2 2 3 2 2 2 2 4 3 3 2 3 2 3 3 3 5 6 5 6 5 4 5 6 5 3 7 8 6 5 7 6 6 6 6 6 7 11 12 12 12 12 12 12 13 13 14 16 16 16 16 15 15 14 14 14 14 14 14 14 14 14 14 14
2 2 1 4 2 3 3 3 3 1 4 4 3 1 2 1 2 3 3 3 4 2 3 3 2 3 3 4 5 5 3 3 3 3 3 4 5 5 4 5 6 4 5 3 4 5 6 8 7 6 7 7 6 6 6 6 5 10 8 10 11 12 12 11 11 11 11 12 13 14 15 15 15 15 15 15 15 15 14 14 13 13 14 14 13
4 3 3 3 3 3 2 4 4 2 3 5 5 3 2 1 2 4 2 3 3 3 3 2 2 3 1 2 5 4 5 4 3 4 1 4 5 6 4 4 5 5 5 4 3 3 3 6 7 7 9 8 8 6 6 5 4 8 9 7 11 10 11 11 10 11 11 11 11 12 13 15 15 15 15 14 14 14 14 12 11 12 10 10 12
5 5 4 3 3 3 3 3 5 3 2 3 4 6 4 1 1 2 3 3 3 3 2 3 2 2 2 1 0 4 3 4 2 4 3 3 3 4 6 4 4 5 6 6 6 4 2 1 5 6 8 8 7 6 5 5 5 8 9 6 7 10 11 11 10 9 11 12 12 13 12 12 11 12 13 14 12 11 11 11 11 11 11 10 10
4 5 4 3 4 3 3 4 3 3 3 3 3 4 7 4 2 3 1 2 4 3 3 4 3 3 3 3 4 4 3 4 2 2 2 2 3 2 5 7 4 4 4 7 7 4 5 4 7 9 8 8 8 7 6 4 6 10 8 6 4 8 10 11 11 10 10 11 11 12 12 12 12 12 11 11 11 10 10 10 9 10 10 10 9
5 5 3 4 4 3 3 3 3 3 3 3 3 3 2 4 5 2 1 3 2 3 3 3 3 2 2 1 2 4 3 3 2 2 2 4 3 2 5 4 6 6 5 5 6 7 9 7 6 7 8 7 7 6 8 9 6 10 8 5 5 4 9 10 11 8 9 10 10 10 11 11 11 10 10 10 9 9 9 9 8 8 9 8 9
6 4 3 4 4 4 3 3 1 2 3 3 3 5 3 1 5 4 4 5 6 4 3 3 3 3 3 3 3 4 3 2 3 3 3 3 3 2 2 3 3 4 4 4 3 6 11 10 7 6 8 8 7 7 7 6 7 8 5 5 5 4 7 10 10 10 10 10 10 9 10 10 9 9 9 9 9 8 8 7 7 6 7 8 8
6 4 3 3 2 4 5 3 2 3 3 2 3 4 3 2 4 3 2 2 4 4 2 4 4 3 3 3 3 4 2 2 2 3 3 4 4 4 4 4 5 4 3 4 4 1 3 6 8 7 8 8 8 6 6 6 11 9 7 6 5 5 8 9 10 10 10 9 9 9 9 9 9 9 8 8 8 7 6 5 6 5 5 6 7
5 4 3 3 2 4 5 3 3 2 1 3 4 3 3 4 3 3 2 2 4 4 5 5 5 5 4 3 3 3 2 1 1 1 2 3 3 5 5 5 4 4 4 4 4 1 3 4 6 8 8 9 8 7 7 6 9 8 8 6 6 9 9 7 9 9 9 9 9 8 8 8 8 8 7 7 7 6 6 6 5 5 5 6 5
4 4 3 3 3 4 4 3 2 3 3 2 1 4 3 3 3 3 2 3 3 3 4 3 6 5 4 4 3 3 2 1 1 1 2 3 4 3 2 3 6 4 3 4 4 4 1 5 6 8 10 9 8 8 7 7 8 8 7 6 8 11 6 4 7 9 9 9 9 8 9 8 7 7 6 7 7 7 6 5 5 6 5 5 5
4 4 4 4 5 3 4 3 3 2 3 2 4 2 3 3 3 3 3 3 3 3 2 3 4 6 4 4 4 3 2 3 2 2 3 5 4 5 3 4 5 5 4 3 4 3 3 4 6 7 8 7 8 9 8 6 6 6 8 7 9 6 5 5 5 7 8 9 9 9 8 8 7 7 7 6 6 5 5 4 3 3 4 4 4
3 4 5 3 5 3 4 3 3 3 3 4 3 3 2 4 4 2 2 1 1 4 3 3 3 4 4 4 4 3 3 4 3 5 5 3 3 4 3 3 7 6 5 4 4 4 4 1 4 5 6 6 6 9 8 8 6 6 9 8 7 6 6 5 5 5 8 8 9 9 8 8 7 6 6 5 5 4 4 4 4 4 3 4 4
3 3 5 3 4 3 3 4 3 3 3 3 3 3 4 3 3 2 4 3 3 2 2 3 4 4 3 3 4 3 4 5 5 2 2 3 4 5 5 3 4 4 4 4 4 4 5 3 2 5 4 5 4 8 9 8 7 6 9 8 8 7 6 6 6 6 9 10 11 10 11 10 8 7 7 6 6 5 5 5 5 5 5 5 5
3 1 5 3 3 3 3 3 3 3 3 3 2 4 3 1 2 5 4 3 3 2 3 2 4 5 3 3 3 1 4 4 3 3 2 3 3 4 4 5 4 6 6 4 4 4 3 4 4 4 5 5 3 8 9 7 7 6 8 8 8 8 6 9 8 7 11 16 14 14 13 12 12 10 9 8 7 7 7 7 7 6 6 6 6
3 1 3 2 4 2 3 3 3 3 4 3 3 3 2 2 1 3 4 4 4 3 4 3 3 5 4 3 6 7 3 1 3 4 3 3 1 5 5 2 3 4 2 2 3 7 6 6 5 1 6 4 3 4 10 8 6 5 6 10 9 9 8 7 9 10 15 22 17 14 12 11 11 11 11 10 9 8 8 7 6 6 5 6 6
4 2 3 2 4 4 2 3 3 2 4 3 3 3 3 2 2 0 1 3 4 4 4 5 5 4 6 5 4 2 1 2 1 0 1 1 4 2 3 2 3 3 1 1 2 2 3 5 6 3 5 4 5 3 8 8 8 6 5 7 9 9 9 7 8 7 8 6 6 7 9 10 11 12 11 10 10 9 8 7 6 5 5 6 6
4 2 3 4 2 4 3 3 3 3 3 2 3 3 3 3 2 1 3 1 3 4 3 4 3 4 6 6 4 3 2 2 1 1 1 2 3 3 1 3 3 4 1 1 2 0 0 2 4 4 3 5 5 5 4 10 10 8 7 5 6 8 8 9 6 3 6 9 12 14 12 12 12 10 10 10 10 10 9 9 8 7 7 8 8
3 2 2 3 3 2 2 4 3 3 3 4 4 2 2 3 2 2 1 0 2 1 3 4 4 3 5 4 3 3 4 4 2 4 5 3 2 1 2 2 2 4 1 2 1 2 1 2 1 2 3 2 4 4 3 6 8 7 8 7 7 6 7 8 7 7 6 8 9 7 7 7 7 9 10 10 10 10 9 8 9 9 10 10 9
2 3 3 4 3 2 4 3 5 10 10 7 6 7 6 4 3 3 1 1 2 2 2 3 3 4 4 6 7 6 7 9 11 9 6 6 4 4 4 3 1 2 0 1 1 2 3 1 4 3 2 2 2 2 5 4 3 6 6 7 7 8 7 7 6 8 9 10 8 8 8 9 8 7 7 6 7 8 8 10 7 10 11 11 10
3 3 3 3 2 5 3 6 10 8 7 6 8 11 9 6 6 1 2 3 2 2 1 3 2 2 8 6 6 10 9 9 10 10 10 11 9 6 3 5 6 4 4 4 3 2 1 2 1 1 2 0 3 4 2 3 4 1 2 4 6 6 6 6 5 5 9 9 9 8 8 7 8 7 7 7 6 9 6 7 7 9 11 12 12
5 5 3 2 4 4 5 10 9 7 6 6 10 11 12 13 8 6 4 1 2 2 3 3 1 1 5 5 4 6 7 6 7 10 11 10 10 9 9 9 6 4 4 4 4 3 1 2 3 1 1 1 3 2 2 6 3 5 5 3 3 3 3 3 4 2 6 11 9 9 8 8 9 9 8 8 7 8 8 9 12 14 14 14 13
6 7 8 9 9 10 10 9 8 6 5 10 12 12 12 11 9 5 5 6 3 1 2 2 3 1 2 4 3 3 2 2 3 4 5 8 10 9 8 6 7 7 6 3 2 3 4 5 3 1 2 2 3 4 3 1 2 3 2 6 8 3 2 2 2 3 1 2 6 7 9 8 10 8 7 8 8 9 11 11 15 15 15 15 13
8 9 9 9 9 9 9 9 8 7 5 12 12 12 12 11 10 7 5 4 6 5 0 0 1 1 1 2 2 2 3 6 3 2 3 4 5 6 5 5 2 1 2 3 2 1 2 3 3 5 4 1 1 1 3 3 4 3 1 1 2 4 5 6 6 6 2 1 1 1 0 3 8 6 6 7 8 8 9 13 17 16 16 15 14
7 8 7 8 9 9 7 7 7 6 7 11 13 13 13 12 12 8 4 4 4 5 6 7 9 13 13 10 8 7 8 9 10 9 8 4 3 2 2 0 1 3 2 2 2 4 4 1 3 4 4 4 1 3 4 4 1 1 1 3 1 2 1 1 1 1 2 1 5 3 5 4 7 5 5 3 6 7 7 11 17 17 17 16 14
7 7 6 7 8 7 7 7 8 7 6 12 12 14 15 15 14 8 4 4 3 4 5 6 8 7 9 8 7 4 3 2 7 7 6 6 2 1 2 4 6 4 4 2 1 1 1 1 3 6 3 2 2 2 2 2 3 3 1 2 2 3 4 1 1 0 1 3 2 2 6 2 1 4 8 4 4 4 4 9 17 17 17 17 15
7 8 8 8 8 7 6 7 7 7 7 12 12 12 10 9 7 3 4 4 3 2 3 11 10 9 8 7 3 6 2 6 6 9 8 5 4 2 0 3 3 7 7 6 5 4 3 2 1 1 1 0 1 0 1 1 2 3 3 3 3 3 3 3 4 2 3 2 1 2 2 3 2 4 3 3 3 5 4 5 14 18 16 14 14
8 8 8 7 7 8 8 7 7 7 7 8 8 7 8 12 10 4 5 5 4 4 10 7 8 8 6 4 2 3 6 7 9 11 11 8 4 4 1 3 3 3 6 6 7 5 6 8 8 7 5 6 6 6 5 6 6 3 2 3 6 4 4 5 5 3 6 3 1 2 2 3 2 0 2 1 1 4 5 5 4 4 12 15 15
7 7 7 8 8 8 9 9 7 5 4 7 11 11 11 11 6 4 4 4 3 4 6 5 7 8 8 13 8 5 5 4 8 11 11 8 4 5 5 3 1 3 6 6 6 4 8 6 6 6 6 6 7 8 8 8 8 5 4 6 5 5 7 7 7 6 2 5 5 5 4 3 2 1 1 1 1 1 4 5 6 6 9 11 14
7 7 7 8 8 8 8 8 9 8 6 8 14 13 13 12 8 4 6 5 6 4 3 5 7 8 7 8 9 6 5 4 7 8 9 6 3 3 4 4 4 1 3 7 7 8 5 4 4 4 4 5 5 4 5 8 9 7 6 5 4 5 6 6 6 3 3 3 5 6 6 3 4 3 4 1 3 1 4 7 7 6 6 6 6
Wind_Direction
270 266 158 184 196 190 191 188 203 195 187 208 151 145 189 186 197 220 222 222 269 211 198 205 169 121 87 77 112 104 54 337 64 106 120 130 129 131 126 124 120 120 117 116 115 115 114 112 109 101 100 100 96 95 96 96 97 94 89 89 87 89 88 88 88 85 84 84 83 84 83 80 80 80 77 73 73 74 74 74 72 70 68 67 67
312 325 353 250 198 184 160 176 224 243 106 84 100 153 190 189 187 198 218 226 243 322 50 266 210 129 88 124 149 170 126 344 1 116 127 121 117 128 129 123 124 120 120 122 123 115 111 111 109 102 100 105 110 108 107 104 94 93 91 91 89 90 95 92 86 83 84 86 85 80 80 79 79 78 79 81 81 78 70 72 75 72 68 66 65
1 345 39 311 284 192 199 186 189 132 151 150 138 205 134 267 162 128 105 217 115 344 283 315 30 57 91 105 163 174 79 130 284 110 115 112 120 135 129 134 127 119 118 121 121 115 112 109 107 110 109 111 109 109 108 101 102 98 95 97 99 97 88 90 95 94 92 87 85 82 79 81 82 78 77 76 78 81 80 77 76 74 69 66 66
82 261 76 20 285 244 161 115 88 97 101 85 104 225 163 205 70 261 286 222 149 221 241 149 81 101 109 119 157 108 93 225 165 50 117 118 124 122 124 112 122 129 126 115 106 108 109 114 118 121 121 113 103 99 102 104 106 106 104 99 97 103 102 93 83 85 83 85 84 85 84 84 84 84 82 81 79 78 79 80 75 76 72 68 67
255 179 119 205 245 183 81 67 50 67 100 178 179 152 59 191 176 150 226 138 177 234 226 101 70 92 122 144 169 136 111 214 74 65 105 123 125 128 123 131 126 115 119 113 95 112 118 119 121 115 112 113 117 118 114 113 110 109 104 101 102 97 95 96 100 98 95 90 89 88 87 85 84 85 82 79 76 74 77 82 82 76 74 70 69
290 28 56 317 350 349 39 40 316 351 319 195 194 160 187 181 192 179 247 226 190 254 87 111 96 97 101 118 312 87 133 142 88 85 102 114 129 128 131 123 117 125 120 121 98 115 133 136 129 123 110 115 119 123 125 121 116 110 111 110 104 101 102 103 96 91 95 97 95 96 96 93 90 86 84 84 81 81 80 78 80 79 76 74 73
44 51 35 173 196 230 182 170 207 188 234 257 218 168 199 203 188 200 168 141 316 115 293 79 95 107 109 133 203 122 124 99 107 114 101 102 101 100 94 101 92 74 113 124 109 94 107 137 138 121 106 112 125 125 127 123 116 116 117 112 108 109 106 101 102 102 97 99 98 98 98 100 97 90 88 89 88 85 81 81 81 81 79 79 76
93 101 216 223 200 210 191 195 243 193 282 236 258 191 203 101 293 98 189 123 237 185 203 68 94 102 105 168 124 100 110 105 116 105 113 119 110 106 106 105 103 84 219 137 136 109 106 104 102 119 121 127 120 123 123 126 127 128 126 122 118 116 115 111 107 108 106 101 103 100 93 96 98 94 92 89 88 85 81 80 81 82 80 79 78
179 135 209 214 205 186 181 198 202 183 291 283 215 192 197 139 226 150 106 163 106 205 141 122 85 87 126 170 85 111 97 122 119 114 88 86 102 97 102 107 103 148 125 130 139 133 118 122 117 103 113 115 124 126 128 131 136 136 134 132 131 125 120 118 118 113 114 110 104 106 102 95 96 105 103 97 93 90 87 83 80 80 81 79 78
156 175 224 212 204 193 121 216 218 119 262 273 256 179 211 126 144 315 134 46 41 134 89 70 89 108 108 115 112 108 117 127 121 120 127 114 94 108 118 133 127 110 113 170 128 124 120 105 112 105 114 130 139 139 136 139 142 143 142 140 139 135 129 124 124 123 118 116 110 103 106 103 101 102 103 101 93 92 90 86 83 82 79 79 77
154 197 222 207 190 174 138 213 218 186 218 251 278 187 100 86 41 175 59 118 111 57 85 91 86 96 101 83 67 94 101 134 136 115 107 111 98 101 126 131 129 117 163 146 89 110 115 135 147 163 136 161 161 148 144 142 141 146 149 150 147 135 130 127 131 130 123 122 119 114 106 108 107 102 102 96 94 92 90 90 89 83 80 77 76
162 183 252 203 178 200 174 203 193 142 235 149 238 178 125 123 171 224 131 104 110 106 94 101 107 96 107 74 83 90 87 92 103 104 107 115 104 109 115 125 104 117 116 76 47 27 64 125 116 119 124 110 108 101 119 134 149 145 166 152 157 156 142 129 127 129 127 125 124 120 117 118 111 105 102 98 96 94 93 91 91 89 86 81 77
168 182 222 206 186 195 181 198 196 183 221 178 237 161 137 146 189 208 151 149 145 122 107 103 112 116 105 103 106 90 80 84 93 91 89 70 67 71 80 76 64 43 41 36 55 67 56 24 57 36 111 127 123 114 108 101 126 161 156 160 169 153 153 146 131 130 133 130 129 129 125 118 111 103 94 98 97 95 92 91 89 88 86 81 80
235 236 250 191 198 192 198 194 180 146 220 194 147 122 162 159 170 143 90 89 60 84 96 109 96 131 136 103 77 65 46 59 80 89 89 83 64 66 95 86 74 70 73 64 1 101 75 349 127 92 77 161 155 154 138 115 96 102 104 191 169 146 153 159 141 138 139 135 132 130 131 121 106 97 92 89 88 89 95 92 85 85 80 78 77
190 227 244 270 195 179 193 172 171 138 177 148 154 144 178 154 138 147 118 101 89 64 65 38 118 124 114 127 136 130 95 47 21 57 70 85 113 119 79 81 96 102 105 134 187 129 84 86 40 227 194 188 202 162 171 151 133 146 152 109 113 161 159 163 165 147 142 141 134 134 128 120 115 111 98 94 99 100 94 95 89 76 96 93 88
199 243 177 263 278 170 213 149 179 159 149 157 131 112 71 58 178 29 162 149 138 94 88 93 120 143 107 67 86 91 120 116 94 43 36 30 53 59 78 107 140 110 109 135 128 108 137 189 201 232 195 182 233 95 42 75 102 94 100 101 140 175 171 163 174 158 147 146 144 137 134 130 124 114 93 78 64 69 87 91 93 96 67 71 81
171 205 209 198 218 173 169 152 156 181 150 152 144 139 166 161 169 245 196 124 113 135 106 118 117 54 117 134 116 74 132 112 134 108 97 70 43 40 71 106 128 120 119 182 166 122 210 208 192 163 117 130 122 103 95 123 141 111 104 111 111 113 152 158 171 163 151 150 146 144 140 124 112 101 93 74 81 93 99 96 90 87 84 79 77
205 198 188 169 187 183 157 164 158 167 151 153 161 156 165 154 182 209 119 68 122 127 122 60 97 104 87 69 39 125 141 148 157 118 98 107 135 125 123 153 192 158 158 184 170 163 182 148 154 83 83 105 119 108 98 81 87 77 79 74 86 77 93 158 164 153 161 154 150 153 146 125 113 104 92 92 92 95 94 89 89 87 86 84 80
248 172 136 114 123 163 169 161 156 154 155 164 161 155 163 184 170 183 148 124 107 120 132 136 139 159 119 114 94 97 137 147 136 130 122 138 136 176 156 156 172 163 139 140 136 136 106 118 113 90 79 74 92 105 96 88 76 81 78 84 75 76 79 97 136 150 158 149 156 150 133 124 115 108 101 98 97 94 92 90 87 83 82 81 80
234 152 134 149 180 133 153 178 156 161 161 150 151 174 191 178 173 147 92 124 144 137 134 170 182 120 125 141 140 150 127 81 121 140 128 134 130 170 137 145 74 68 120 164 124 123 133 163 123 95 90 82 67 80 77 77 74 66 61 80 85 85 85 86 94 117 136 146 155 138 127 118 110 106 105 103 98 93 91 90 86 84 83 82 80
172 160 158 156 154 171 158 153 122 153 158 141 154 178 126 120 122 115 114 96 77 70 99 140 80 112 132 139 127 118 113 120 151 170 125 132 129 155 144 133 155 150 146 122 128 134 157 158 107 108 116 111 91 82 78 73 71 70 78 85 88 87 88 89 92 99 105 114 119 122 117 114 112 110 107 101 98 96 93 91 89 88 85 84 83
141 177 184 147 161 157 160 137 142 167 103 154 156 147 132 154 154 113 108 110 91 85 94 100 99 121 157 107 98 114 79 66 88 109 87 114 153 160 151 152 138 154 172 135 137 158 169 123 100 110 129 101 82 83 81 80 84 82 82 85 85 85 86 88 92 98 102 104 110 110 112 112 111 111 110 108 105 103 100 97 96 93 91 88 86
162 165 186 136 142 149 144 132 154 156 160 121 61 88 134 131 145 128 119 114 121 102 95 112 116 123 89 71 70 82 130 142 155 181 166 145 139 147 155 150 131 145 196 164 148 159 126 103 113 134 127 104 99 96 87 83 77 87 90 90 92 90 89 89 90 89 95 105 112 114 113 112 112 111 111 109 108 107 103 100 97 96 95 94 90
130 131 141 110 103 121 131 133 112 120 103 123 128 104 106 94 111 93 113 113 121 138 138 142 156 118 103 78 104 125 152 144 162 147 167 142 144 140 142 135 143 140 138 148 131 130 138 127 133 143 117 108 105 102 102 94 92 91 84 88 92 93 93 93 92 97 103 109 113 115 115 114 114 112 109 108 105 100 98 95 92 97 101 98 95
145 125 105 118 111 101 116 119 112 155 139 142 146 137 114 151 145 126 124 135 140 156 135 126 122 97 121 130 150 185 160 148 150 156 167 119 140 149 149 166 139 138 141 151 132 125 118 144 151 135 119 121 121 119 119 110 100 99 95 83 95 96 97 95 92 89 85 81 84 94 106 111 111 109 106 104 101 96 89 82 79 71 67 86 93
147 141 137 150 137 158 159 148 152 142 130 112 126 141 104 23 110 125 146 138 142 152 148 132 140 130 130 121 26 105 121 121 137 123 152 139 142 136 137 145 151 149 151 139 123 121 348 293 162 120 114 112 109 109 102 112 111 103 101 95 83 93 96 96 94 92 95 93 93 91 91 92 90 95 98 99 95 91 90 88 84 78 75 67 74
128 121 143 146 112 114 91 78 77 116 124 135 112 117 133 153 104 105 178 150 152 127 147 153 156 166 141 148 149 144 128 108 106 119 111 99 116 173 157 146 153 155 152 144 155 155 162 180 104 98 110 114 117 118 125 123 125 121 107 93 86 94 103 104 103 101 103 105 104 102 99 100 100 101 101 100 100 99 96 91 88 87 82 77 66
125 119 142 112 121 100 109 97 96 116 139 129 134 117 114 134 130 101 82 117 133 162 129 146 136 129 132 104 106 113 114 120 136 176 166 151 157 219 139 162 148 151 172 155 156 155 165 117 109 115 116 117 117 117 120 129 140 135 116 109 108 91 103 108 110 107 113 114 114 112 110 108 107 108 109 106 102 102 102 99 100 98 97 92 86
123 126 136 121 143 158 124 99 84 79 89 104 127 111 142 139 113 139 182 144 185 144 149 134 141 150 151 164 139 110 108 146 178 182 161 137 196 179 181 169 159 146 153 136 135 149 152 136 133 126 113 112 120 130 139 154 153 153 130 118 118 116 120 121 121 120 121 123 123 124 121 119 118 119 118 116 114 114 109 111 106 108 108 109 108
127 136 130 138 165 124 107 112 114 96 109 157 138 114 136 116 114 141 138 116 110 121 149 149 151 170 148 147 115 121 136 179 195 149 138 185 191 156 201 170 177 152 150 143 146 169 123 120 131 133 133 132 141 158 147 149 178 158 134 129 125 132 137 132 134 133 133 134 132 131 131 132 131 131 130 129 127 125 124 124 123 126 130 125 120
113 122 129 142 141 102 109 135 127 122 111 75 96 144 123 90 119 119 114 129 134 152 160 170 154 155 155 141 120 118 132 204 92 83 140 194 196 182 205 178 146 140 145 128 136 223 131 135 127 137 138 149 162 160 147 159 181 153 134 132 134 145 145 146 149 149 148 146 143 141 143 144 144 143 143 142 144 148 152 156 159 161 161 139 129
128 139 151 145 150 127 118 117 123 123 113 137 116 88 93 123 137 138 154 170 149 161 137 159 145 148 149 136 130 133 178 105 99 212 233 237 217 162 121 111 129 132 127 140 134 169 179 130 137 139 149 163 163 144 141 163 177 168 140 132 143 151 152 158 170 164 160 157 158 159 157 154 158 160 161 162 165 169 175 175 178 179 151 145 151
119 169 159 162 141 149 122 141 139 134 121 105 87 113 138 159 126 111 183 178 150 127 142 158 145 151 148 140 141 150 152 123 186 230 231 228 152 137 143 123 121 136 147 130 131 128 54 126 136 148 161 157 148 143 152 153 158 162 142 133 151 168 165 168 174 185 177 173 172 175 165 163 173 180 173 176 173 186 172 176 181 157 158 163 158
160 195 149 152 134 155 133 140 137 127 137 119 130 174 141 90 110 166 151 157 98 120 142 157 132 128 131 150 154 136 158 169 215 206 217 176 139 130 146 164 141 164 180 160 141 122 128 115 136 135 145 170 142 156 151 154 170 165 138 149 168 182 173 168 166 185 201 192 188 184 180 180 188 193 171 180 177 182 190 197 199 188 192 176 173
188 203 132 146 145 146 139 135 141 141 156 128 168 130 95 146 175 105 93 75 87 128 123 132 141 128 137 139 137 147 179 202 207 191 188 225 184 154 163 168 126 151 173 116 121 123 143 185 167 144 144 199 154 157 150 157 176 167 146 161 170 191 182 176 178 187 194 206 200 196 192 192 192 193 187 188 189 194 203 206 206 199 199 196 193
165 179 112 156 143 131 130 132 134 154 143 127 137 118 142 182 107 115 115 123 124 147 130 169 143 127 139 120 70 212 188 188 209 125 232 279 308 88 76 55 66 62 88 156 158 120 139 156 242 163 151 193 216 149 145 161 171 193 153 167 176 193 204 179 190 189 191 200 205 203 200 196 192 191 193 193 198 202 205 206 201 199 196 196 197
125 126 122 179 136 138 124 146 143 173 128 149 137 124 127 80 111 115 159 146 147 122 103 72 59 107 97 73 127 237 173 182 93 143 258 298 39 79 86 82 82 85 43 1 122 159 152 169 202 206 153 161 221 153 147 161 175 204 177 166 185 192 211 204 188 194 184 197 199 201 203 206 205 198 193 196 202 206 209 207 202 199 200 196 193
136 143 157 179 145 126 169 137 153 123 116 150 150 136 120 178 111 202 74 101 111 113 123 146 128 144 139 130 203 182 108 72 66 96 300 8 58 91 123 177 135 117 154 42 5 117 148 175 167 214 147 166 200 222 158 160 167 184 213 180 184 191 201 224 221 193 178 160 178 203 209 212 217 211 203 199 200 205 209 208 202 200 204 197 188
125 126 205 117 136 133 187 127 128 147 136 136 96 92 123 111 106 57 84 89 115 134 158 120 125 130 142 146 161 121 120 95 51 4 26 33 23 26 43 70 29 85 69 130 263 209 202 154 161 189 181 184 168 210 185 165 167 179 186 216 197 192 198 203 204 137 164 179 197 194 195 196 200 202 209 208 205 203 204 205 198 191 194 190 184
142 176 140 124 104 158 129 117 116 113 85 45 43 38 143 109 82 100 89 44 102 45 115 140 147 123 103 117 108 84 63 56 49 39 34 11 40 1 354 49 89 135 169 278 294 346 145 247 166 206 228 174 199 177 218 166 171 184 191 187 208 209 206 203 189 164 171 175 185 197 208 204 215 208 203 208 211 205 205 206 201 189 188 184 182
145 118 116 115 178 132 86 87 87 60 55 45 25 9 6 51 117 121 119 115 76 88 76 65 83 118 106 73 75 88 89 86 83 87 83 71 54 31 6 355 49 65 81 351 74 352 336 47 349 8 341 357 309 245 231 241 195 198 202 186 202 208 202 196 203 169 167 177 194 186 195 194 200 202 194 202 208 195 210 204 197 191 188 183 179
121 107 105 133 117 102 115 82 67 62 51 48 22 27 19 31 17 17 148 113 122 113 101 83 30 71 102 102 103 111 110 109 110 103 84 75 72 71 60 47 20 39 38 22 51 107 285 39 7 260 249 54 302 318 296 287 268 251 226 212 208 213 200 202 214 188 176 173 176 192 203 188 192 194 188 204 197 181 199 193 194 187 188 184 180
95 93 91 56 87 116 87 73 66 61 50 24 12 32 28 21 23 18 3 76 125 112 98 121 93 14 101 110 115 108 106 96 76 89 91 88 87 77 67 68 60 54 24 22 359 356 334 157 168 96 290 223 232 259 1 306 334 343 325 289 243 223 199 203 238 280 189 171 183 191 203 183 183 192 194 200 187 183 193 200 188 182 183 183 179
63 63 60 42 35 53 67 73 66 61 59 17 16 21 29 26 21 358 35 12 359 104 84 112 140 152 110 127 121 122 133 113 106 86 92 98 98 98 93 79 75 71 95 75 11 356 14 358 342 214 179 220 162 214 178 137 316 349 313 300 295 278 279 273 235 234 263 199 208 191 205 174 187 190 190 201 189 187 195 187 182 182 183 182 178
61 61 57 53 60 61 59 65 60 46 51 13 11 18 18 16 17 17 27 16 15 343 18 73 20 48 137 93 116 110 62 111 115 132 154 117 57 59 64 52 28 309 73 117 93 51 359 343 335 328 332 14 335 196 210 166 157 204 228 228 290 314 290 262 246 257 288 242 283 349 291 168 182 199 205 207 180 183 185 180 181 180 179 178 178
62 65 65 68 70 66 62 64 64 51 38 4 11 16 14 8 2 17 13 17 3 353 34 40 39 41 38 34 32 29 12 4 19 5 4 58 87 68 34 351 332 49 354 17 88 147 165 210 283 284 288 321 14 63 31 16 57 194 172 248 270 277 289 244 351 329 271 192 169 205 250 227 190 181 227 199 154 169 179 178 173 174 175 178 180
66 66 61 69 72 77 75 70 69 50 23 5 14 16 8 360 351 357 348 0 358 355 10 58 68 64 68 49 14 24 108 92 41 11 20 351 6 70 19 30 22 350 326 316 343 13 352 253 243 256 285 54 67 41 60 15 13 341 264 241 214 212 237 213 252 312 1 35 88 158 246 292 357 181 221 159 150 141 151 164 168 171 175 179 175
57 57 52 62 75 73 69 73 79 55 24 13 16 19 2 320 312 21 0 338 332 332 15 54 49 52 49 60 49 290 341 74 34 39 37 353 329 299 44 51 337 304 304 291 250 193 246 296 314 17 348 242 174 226 319 294 295 278 302 275 262 253 246 238 237 206 221 187 106 144 196 217 215 185 215 61 108 160 171 172 184 176 176 165 165
72 65 63 48 58 70 62 55 61 61 38 6 13 22 6 3 14 14 359 337 325 34 73 77 76 68 60 52 108 289 32 30 10 27 22 15 359 351 16 147 162 257 286 302 290 218 200 202 217 216 198 195 210 219 230 230 228 263 261 264 255 247 248 252 258 237 244 170 233 151 154 227 251 144 81 2 96 132 159 160 133 181 169 169 170
94 90 83 77 66 64 64 57 47 61 40 16 20 26 22 16 358 14 356 339 2 63 89 100 97 81 61 58 48 58 62 44 19 35 21 25 8 353 346 0 42 292 277 282 288 241 211 239 255 248 229 219 215 220 218 216 225 220 194 222 230 215 238 232 245 238 212 165 197 155 158 226 164 130 127 166 85 140 120 145 153 165 183 176 177
86 85 84 82 77 71 74 76 67 58 35 16 17 22 28 24 21 9 18 25 36 41 88 93 97 93 70 56 60 59 68 70 65 53 41 32 41 15 9 342 309 294 44 341 312 302 302 286 261 238 243 215 208 204 204 208 215 219 231 244 268 251 249 250 243 250 248 246 218 168 183 201 145 212 134 156 231 268 131 148 157 166 184 190 188